M I D A S
Marine Information and Data Acquisition System
Tripno 1199 of the Zeeleeuw from 2006-12-12 07:46:21 to 2006-12-12 12:17:22
Back to CruiseResearch ActivitiesStationsMapUnderway DataData graphs

EquipmentUnitsComments
TimeDGPSUTC
LatitudeDGPSDM.mWGS84
LongitudeDGPSDM.mWGS84
SpeedMeteo Stationm/sRelative wind speed
DirectionMeteo StationdegRelative wind direction
TemperatureMeteo Stationdeg CelciusAir temperature
PressureMeteo StationPaAtmospheric pressure
HumidityMeteo Station%Relative humidity
Missing or incorrect values are displayed as -999
Metereological data collected by the RV Zeeleeuw from 2006-12-12 07:45:14 to 2006-12-12 13:19:31
                                                                                    Next 1000 lines
Time Latitude Longitude Speed Direction Temperature Pressure Humidity
2006-12-12 07:46:28 51°13.619 2°56.022 2.9 42 4.7 102130 90
2006-12-12 07:46:33 51°13.621 2°56.013 4.8 34 4.7 102130 90
2006-12-12 07:46:38 51°13.624 2°56.003 3.8 30 4.7 102130 90
2006-12-12 07:46:43 51°13.626 2°55.993 3.3 35 4.7 102130 90
2006-12-12 07:46:48 51°13.629 2°55.982 3.2 38 4.7 102140 90
2006-12-12 07:46:53 51°13.632 2°55.972 2.7 36 4.7 102140 90
2006-12-12 07:46:58 51°13.635 2°55.962 2.3 40 4.7 102140 90
2006-12-12 07:47:03 51°13.638 2°55.952 3.1 55 4.7 102140 90
2006-12-12 07:47:08 51°13.64 2°55.942 2.9 41 4.7 102130 90
2006-12-12 07:47:13 51°13.643 2°55.932 3.1 39 4.7 102130 90
2006-12-12 07:47:18 51°13.646 2°55.922 2.8 26 4.7 102130 90
2006-12-12 07:47:23 51°13.649 2°55.911 2.9 54 4.7 102130 90
2006-12-12 07:47:28 51°13.652 2°55.901 2.4 44 4.7 102130 90
2006-12-12 07:47:33 51°13.655 2°55.89 2.5 37 4.7 102130 90
2006-12-12 07:47:38 51°13.658 2°55.879 2.5 30 4.7 102130 90
2006-12-12 07:47:43 51°13.661 2°55.869 2.7 50 4.7 102130 90
2006-12-12 07:47:48 51°13.664 2°55.859 3.5 39 4.7 102140 90
2006-12-12 07:47:53 51°13.667 2°55.85 3.8 35 4.7 102140 90
2006-12-12 07:47:58 51°13.671 2°55.841 2.8 32 4.7 102140 90
2006-12-12 07:48:03 51°13.674 2°55.832 3.4 52 4.7 102140 90
2006-12-12 07:48:08 51°13.678 2°55.824 3.2 34 4.7 102140 90
2006-12-12 07:48:13 51°13.682 2°55.816 2.8 30 4.7 102140 90
2006-12-12 07:48:18 51°13.686 2°55.808 2.2 28 4.7 102140 90
2006-12-12 07:48:23 51°13.689 2°55.8 2.1 30 4.7 102140 90
2006-12-12 07:48:28 51°13.693 2°55.792 2.2 31 4.7 102140 90
2006-12-12 07:48:33 51°13.698 2°55.785 2.3 41 4.7 102140 90
2006-12-12 07:48:38 51°13.702 2°55.778 3.6 29 4.7 102130 90
2006-12-12 07:48:43 51°13.706 2°55.771 3.5 38 4.7 102130 90
2006-12-12 07:48:48 51°13.711 2°55.765 3 29 4.7 102140 90
2006-12-12 07:48:53 51°13.716 2°55.758 3.2 30 4.7 102140 90
2006-12-12 07:48:58 51°13.721 2°55.751 2.7 24 4.7 102130 90
2006-12-12 07:49:03 51°13.726 2°55.745 3.2 21 4.7 102130 90
2006-12-12 07:49:08 51°13.731 2°55.738 3.6 26 4.7 102140 90
2006-12-12 07:49:13 51°13.737 2°55.732 3.5 29 4.7 102140 90
2006-12-12 07:49:18 51°13.743 2°55.726 4.2 33 4.7 102140 90
2006-12-12 07:49:23 51°13.749 2°55.72 3.5 18 4.7 102140 90
2006-12-12 07:49:28 51°13.755 2°55.714 2.5 25 4.7 102140 90
2006-12-12 07:49:33 51°13.761 2°55.708 2.4 30 4.7 102140 90
2006-12-12 07:49:38 51°13.767 2°55.702 1.7 28 4.7 102140 90
2006-12-12 07:49:43 51°13.774 2°55.695 2.4 27 4.7 102140 90
2006-12-12 07:49:48 51°13.78 2°55.689 2.1 39 4.7 102140 90
2006-12-12 07:49:53 51°13.786 2°55.682 1.3 33 4.7 102140 90
2006-12-12 07:49:58 51°13.793 2°55.675 1.8 25 4.7 102140 90
2006-12-12 07:50:03 51°13.8 2°55.668 1.7 36 4.7 102140 90
2006-12-12 07:50:08 51°13.807 2°55.66 1.4 36 4.7 102140 90
2006-12-12 07:50:13 51°13.813 2°55.653 0.9 38 4.7 102140 90
2006-12-12 07:50:18 51°13.82 2°55.646 0.9 28 4.7 102140 90
2006-12-12 07:50:23 51°13.827 2°55.639 1 14 4.7 102140 90
2006-12-12 07:50:28 51°13.833 2°55.631 0.7 23 4.7 102140 90
2006-12-12 07:50:33 51°13.839 2°55.624 1.5 52 4.7 102140 90
2006-12-12 07:50:38 51°13.846 2°55.618 1.8 30 4.7 102140 90
2006-12-12 07:50:43 51°13.853 2°55.612 1.5 26 4.7 102140 90
2006-12-12 07:50:48 51°13.86 2°55.607 2.3 24 4.7 102140 90
2006-12-12 07:50:53 51°13.867 2°55.602 1.9 21 4.7 102140 90
2006-12-12 07:50:58 51°13.874 2°55.599 1.5 23 4.7 102140 90
2006-12-12 07:51:03 51°13.881 2°55.596 1.4 17 4.7 102140 90
2006-12-12 07:51:08 51°13.888 2°55.593 1.4 26 4.7 102140 90
2006-12-12 07:51:13 51°13.896 2°55.592 1.2 40 4.7 102140 90
2006-12-12 07:51:18 51°13.903 2°55.591 1.1 21 4.7 102140 90
2006-12-12 07:51:23 51°13.911 2°55.59 1 38 4.7 102140 90
2006-12-12 07:51:28 51°13.918 2°55.591 0.7 18 4.7 102130 90
2006-12-12 07:51:33 51°13.925 2°55.593 0.6 306 4.7 102130 90
2006-12-12 07:51:38 51°13.931 2°55.594 0.9 247 4.7 102140 90
2006-12-12 07:51:43 51°13.937 2°55.597 1.2 302 4.7 102140 90
2006-12-12 07:51:48 51°13.943 2°55.599 0.9 248 4.7 102140 90
2006-12-12 07:51:53 51°13.949 2°55.602 0.6 58 4.7 102140 90
2006-12-12 07:51:58 51°13.954 2°55.605 1.1 24 4.7 102140 90
2006-12-12 07:52:03 51°13.958 2°55.607 1.1 339 4.7 102140 90
2006-12-12 07:52:08 51°13.962 2°55.61 1.9 331 4.7 102140 90
2006-12-12 07:52:13 51°13.965 2°55.612 1.3 304 4.7 102140 90
2006-12-12 07:52:17 51°13.967 2°55.614 2.3 24 4.7 102140 90
2006-12-12 07:52:22 51°13.969 2°55.615 2.2 304 4.7 102140 90
2006-12-12 07:52:27 51°13.971 2°55.616 2.8 25 4.8 102140 90
2006-12-12 07:52:33 51°13.972 2°55.615 2.3 303 4.8 102140 90
2006-12-12 07:52:38 51°13.972 2°55.614 2 316 4.8 102140 90
2006-12-12 07:52:43 51°13.972 2°55.612 3.1 306 4.8 102140 90
2006-12-12 07:52:48 51°13.972 2°55.609 3.2 21 4.8 102140 90
2006-12-12 07:52:53 51°13.972 2°55.606 6.5 309 4.8 102140 90
2006-12-12 07:52:58 51°13.972 2°55.602 5.7 25 4.8 102140 90
2006-12-12 07:53:02 51°13.972 2°55.599 4.4 303 4.8 102140 90
2006-12-12 07:53:07 51°13.972 2°55.594 4.7 18 4.8 102140 90
2006-12-12 07:53:12 51°13.973 2°55.589 2.9 309 4.8 102140 90
2006-12-12 07:53:17 51°13.974 2°55.583 3.1 247 4.8 102140 91
2006-12-12 07:53:22 51°13.976 2°55.577 3.4 304 4.8 102140 91
2006-12-12 07:53:27 51°13.978 2°55.571 1.9 265 4.8 102140 91
2006-12-12 07:53:32 51°13.981 2°55.564 1.8 304 4.8 102140 91
2006-12-12 07:53:37 51°13.984 2°55.558 3 270 4.8 102140 91
2006-12-12 07:53:42 51°13.989 2°55.551 1.7 308 4.8 102140 91
2006-12-12 07:53:47 51°13.994 2°55.544 1.4 260 4.8 102140 91
2006-12-12 07:53:52 51°14.001 2°55.537 1.9 301 4.8 102140 91
2006-12-12 07:53:56 51°14.006 2°55.531 4.3 21 4.8 102140 91
2006-12-12 07:54:01 51°14.014 2°55.522 3.3 303 4.8 102140 91
2006-12-12 07:54:06 51°14.024 2°55.512 4.3 24 4.8 102140 91
2006-12-12 07:54:11 51°14.034 2°55.502 3.7 303 4.8 102140 91
2006-12-12 07:54:16 51°14.044 2°55.491 2.7 24 4.8 102140 91
2006-12-12 07:54:21 51°14.056 2°55.479 3.4 312 4.8 102140 91
2006-12-12 07:54:26 51°14.068 2°55.468 4.6 26 4.9 102140 91
2006-12-12 07:54:31 51°14.081 2°55.457 4.9 305 4.9 102140 91
2006-12-12 07:54:36 51°14.095 2°55.446 4 321 4.9 102140 91
2006-12-12 07:54:41 51°14.109 2°55.434 5 305 4.9 102140 91
2006-12-12 07:54:45 51°14.121 2°55.425 4 324 4.9 102140 91
2006-12-12 07:54:51 51°14.138 2°55.409 5.4 307 4.9 102140 91
2006-12-12 07:54:56 51°14.153 2°55.396 4.6 317 4.9 102140 91
2006-12-12 07:55:00 51°14.165 2°55.385 3.6 305 4.9 102140 91
2006-12-12 07:55:05 51°14.18 2°55.371 4.3 318 4.9 102140 91
2006-12-12 07:55:10 51°14.195 2°55.355 4.6 308 4.9 102140 91
2006-12-12 07:55:15 51°14.209 2°55.338 3.8 320 4.9 102140 91
2006-12-12 07:55:20 51°14.224 2°55.321 4.3 309 4.9 102140 91
2006-12-12 07:55:25 51°14.238 2°55.303 6.3 18 4.9 102140 91
2006-12-12 07:55:30 51°14.251 2°55.284 4 308 4.9 102140 91
2006-12-12 07:55:34 51°14.261 2°55.267 6 320 4.9 102140 91
2006-12-12 07:55:40 51°14.277 2°55.242 7.5 320 4.9 102140 91
2006-12-12 07:55:45 51°14.289 2°55.221 5.8 27 4.9 102140 91
2006-12-12 07:55:49 51°14.299 2°55.204 8.6 303 4.9 102140 91
2006-12-12 07:55:54 51°14.311 2°55.182 9.2 21 4.9 102130 91
2006-12-12 07:55:59 51°14.323 2°55.16 8.9 306 4.9 102130 91
2006-12-12 07:56:05 51°14.338 2°55.133 7.7 318 5 102140 91
2006-12-12 07:56:10 51°14.35 2°55.111 6.3 311 5 102140 91
2006-12-12 07:56:14 51°14.361 2°55.094 7.4 18 5 102130 91
2006-12-12 07:56:20 51°14.376 2°55.068 8 310 5 102130 91
2006-12-12 07:56:25 51°14.389 2°55.047 7.2 21 5 102120 91
2006-12-12 07:56:30 51°14.403 2°55.027 6.8 311 5 102120 91
2006-12-12 07:56:34 51°14.415 2°55.012 7 27 5.1 102130 91
2006-12-12 07:56:40 51°14.433 2°54.99 7.1 304 5.1 102130 91
2006-12-12 07:56:45 51°14.45 2°54.974 7.3 19 5.2 102130 91
2006-12-12 07:56:50 51°14.466 2°54.957 6.9 34 5.2 102130 91
2006-12-12 07:56:54 51°14.479 2°54.944 7.1 25 5.2 102120 91
2006-12-12 07:57:00 51°14.498 2°54.924 6.7 311 5.2 102120 91
2006-12-12 07:57:04 51°14.511 2°54.911 5.5 24 5.2 102120 91
2006-12-12 07:57:10 51°14.531 2°54.891 5.6 304 5.2 102120 91
2006-12-12 07:57:15 51°14.547 2°54.876 5.8 20 5.3 102120 91
2006-12-12 07:57:20 51°14.564 2°54.86 5.9 310 5.3 102120 91
2006-12-12 07:57:24 51°14.577 2°54.848 5.9 19 5.3 102120 91
2006-12-12 07:57:29 51°14.594 2°54.833 5.5 304 5.3 102120 91
2006-12-12 07:57:35 51°14.615 2°54.814 6 26 5.3 102130 91
2006-12-12 07:57:40 51°14.631 2°54.798 5.9 35 5.3 102130 91
2006-12-12 07:57:44 51°14.645 2°54.786 5.8 25 5.3 102130 91
2006-12-12 07:57:49 51°14.662 2°54.771 7 35 5.3 102130 91
2006-12-12 07:57:55 51°14.683 2°54.754 5.7 24 5.4 102130 91
2006-12-12 07:58:00 51°14.7 2°54.74 5.3 34 5.4 102130 91
2006-12-12 07:58:05 51°14.718 2°54.726 5.9 26 5.4 102120 91
2006-12-12 07:58:09 51°14.732 2°54.716 5.7 309 5.4 102120 91
2006-12-12 07:58:14 51°14.749 2°54.702 5.2 25 5.4 102130 91
2006-12-12 07:58:20 51°14.771 2°54.685 6.8 238 5.4 102130 91
2006-12-12 07:58:25 51°14.788 2°54.67 6.6 21 5.4 102130 91
2006-12-12 07:58:30 51°14.805 2°54.656 7 30 5.4 102130 91
2006-12-12 07:58:34 51°14.819 2°54.644 6.7 20 5.5 102130 91
2006-12-12 07:58:40 51°14.839 2°54.625 6.4 310 5.5 102130 91
2006-12-12 07:58:45 51°14.856 2°54.609 7.6 20 5.6 102130 91
2006-12-12 07:58:49 51°14.869 2°54.597 6.4 236 5.6 102130 91
2006-12-12 07:58:55 51°14.889 2°54.578 6.9 24 5.6 102130 91
2006-12-12 07:59:00 51°14.906 2°54.563 6.7 308 5.6 102130 91
2006-12-12 07:59:05 51°14.923 2°54.548 7.5 21 5.7 102130 92
2006-12-12 07:59:10 51°14.94 2°54.532 7.6 240 5.7 102130 92
2006-12-12 07:59:14 51°14.953 2°54.52 7.5 19 5.7 102120 92
2006-12-12 07:59:20 51°14.973 2°54.501 6.7 302 5.7 102120 92
2006-12-12 07:59:24 51°14.986 2°54.488 7.3 25 5.7 102120 92
2006-12-12 07:59:30 51°15.006 2°54.47 7.1 308 5.7 102120 92
2006-12-12 07:59:35 51°15.022 2°54.455 7.3 18 5.8 102120 92
2006-12-12 07:59:40 51°15.039 2°54.439 7 304 5.8 102120 92
2006-12-12 07:59:44 51°15.052 2°54.427 6.9 21 5.8 102120 92
2006-12-12 07:59:49 51°15.069 2°54.412 7.3 306 5.8 102120 92
2006-12-12 07:59:55 51°15.089 2°54.394 6.8 25 5.9 102120 92
2006-12-12 08:00:00 51°15.106 2°54.378 7.1 236 5.9 102120 92
2006-12-12 08:00:04 51°15.119 2°54.366 6.5 27 5.9 102120 92
2006-12-12 08:00:09 51°15.136 2°54.351 7.7 311 5.9 102120 92
2006-12-12 08:00:14 51°15.153 2°54.335 7.1 21 5.9 102120 91
2006-12-12 08:00:20 51°15.173 2°54.317 6.8 234 5.9 102120 91
2006-12-12 08:00:25 51°15.19 2°54.301 6.8 24 5.9 102120 91
2006-12-12 08:00:29 51°15.203 2°54.289 6.7 32 5.9 102120 91
2006-12-12 08:00:34 51°15.22 2°54.273 6.5 19 6 102120 91
2006-12-12 08:00:40 51°15.24 2°54.254 6.6 303 6 102120 91
2006-12-12 08:00:45 51°15.257 2°54.238 6.4 20 6 102120 91
2006-12-12 08:00:50 51°15.274 2°54.222 6.1 303 6 102120 91
2006-12-12 08:00:54 51°15.287 2°54.209 6.1 28 6 102130 91
2006-12-12 08:01:00 51°15.307 2°54.191 5.5 308 6 102130 91
2006-12-12 08:01:04 51°15.321 2°54.177 6.1 18 6.1 102120 91
2006-12-12 08:01:10 51°15.341 2°54.159 6.3 307 6.1 102120 91
2006-12-12 08:01:14 51°15.354 2°54.146 8.8 22 6.1 102140 91
2006-12-12 08:01:20 51°15.375 2°54.128 7.5 304 6.1 102140 91
2006-12-12 08:01:25 51°15.392 2°54.112 7.5 23 6.1 102120 91
2006-12-12 08:01:30 51°15.409 2°54.096 7.5 31 6.1 102120 91
2006-12-12 08:01:34 51°15.423 2°54.083 7.3 25 6.2 102110 91
2006-12-12 08:01:40 51°15.443 2°54.065 6.6 311 6.2 102110 91
2006-12-12 08:01:44 51°15.456 2°54.052 6 21 6.2 102130 91
2006-12-12 08:01:50 51°15.477 2°54.034 6.1 241 6.2 102130 91
2006-12-12 08:01:55 51°15.494 2°54.018 6.5 22 6.2 102120 91
2006-12-12 08:02:00 51°15.51 2°54.002 6.2 310 6.2 102120 91
2006-12-12 08:02:04 51°15.524 2°53.99 6.7 19 6.2 102120 91
2006-12-12 08:02:09 51°15.541 2°53.975 6.6 308 6.2 102120 91
2006-12-12 08:02:15 51°15.561 2°53.956 6.3 26 6.3 102120 91
2006-12-12 08:02:20 51°15.578 2°53.941 7.1 242 6.3 102120 91
2006-12-12 08:02:24 51°15.591 2°53.928 5.7 25 6.3 102120 91
2006-12-12 08:02:29 51°15.608 2°53.914 6.1 308 6.3 102120 91
2006-12-12 08:02:34 51°15.625 2°53.898 6.2 23 6.3 102130 91
2006-12-12 08:02:40 51°15.646 2°53.88 5 239 6.3 102130 91
2006-12-12 08:02:45 51°15.662 2°53.866 6.5 18 6.3 102120 91
2006-12-12 08:02:50 51°15.679 2°53.851 6.7 305 6.3 102120 91
2006-12-12 08:02:54 51°15.693 2°53.838 6.5 24 6.3 102120 91
2006-12-12 08:02:59 51°15.709 2°53.823 5.8 309 6.3 102120 91
2006-12-12 08:03:04 51°15.726 2°53.809 5.2 25 6.4 102120 91
2006-12-12 08:03:10 51°15.746 2°53.791 5.4 306 6.4 102120 91
2006-12-12 08:03:14 51°15.76 2°53.778 5.9 23 6.4 102120 90
2006-12-12 08:03:20 51°15.78 2°53.761 5.5 310 6.4 102120 90
2006-12-12 08:03:25 51°15.797 2°53.746 6 20 6.4 102130 90
2006-12-12 08:03:30 51°15.814 2°53.732 5.6 309 6.4 102130 90
2006-12-12 08:03:35 51°15.831 2°53.718 6.7 25 6.4 102130 90
2006-12-12 08:03:40 51°15.847 2°53.703 6.3 304 6.4 102130 90
2006-12-12 08:03:44 51°15.86 2°53.691 5.6 19 6.4 102130 90
2006-12-12 08:03:49 51°15.877 2°53.676 5.5 236 6.4 102130 90
2006-12-12 08:03:54 51°15.894 2°53.66 5.2 25 6.4 102120 90
2006-12-12 08:04:00 51°15.914 2°53.642 6 243 6.4 102120 90
2006-12-12 08:04:05 51°15.93 2°53.626 5 22 6.5 102110 90
2006-12-12 08:04:10 51°15.947 2°53.611 4.8 305 6.5 102110 90
2006-12-12 08:04:15 51°15.964 2°53.596 5.2 22 6.5 102120 90
2006-12-12 08:04:20 51°15.981 2°53.581 6 307 6.5 102120 90
2006-12-12 08:04:24 51°15.995 2°53.569 6.7 25 6.5 102120 91
2006-12-12 08:04:29 51°16.011 2°53.554 4.9 310 6.5 102120 91
2006-12-12 08:04:35 51°16.032 2°53.537 6.2 20 6.5 102110 91
2006-12-12 08:04:40 51°16.048 2°53.522 6.2 240 6.5 102110 91
2006-12-12 08:04:44 51°16.062 2°53.51 6.7 21 6.6 102130 91
2006-12-12 08:04:50 51°16.082 2°53.491 8.8 309 6.6 102130 91
2006-12-12 08:04:54 51°16.095 2°53.479 7.7 20 6.6 102110 91
2006-12-12 08:05:00 51°16.116 2°53.46 8.4 240 6.6 102110 91
2006-12-12 08:05:05 51°16.133 2°53.444 8.5 25 6.6 102130 91
2006-12-12 08:05:10 51°16.149 2°53.429 7.8 302 6.6 102130 91
2006-12-12 08:05:14 51°16.163 2°53.417 7.2 28 6.7 102110 91
2006-12-12 08:05:20 51°16.183 2°53.398 7.9 241 6.7 102110 91
2006-12-12 08:05:25 51°16.2 2°53.383 8.5 25 6.7 102120 91
2006-12-12 08:05:30 51°16.216 2°53.368 7.7 241 6.7 102120 91
2006-12-12 08:05:34 51°16.23 2°53.355 8.7 19 6.8 102110 92
2006-12-12 08:05:40 51°16.25 2°53.337 8.1 309 6.8 102110 92
2006-12-12 08:05:44 51°16.263 2°53.325 7.1 24 6.8 102110 92
2006-12-12 08:05:50 51°16.283 2°53.306 7.1 311 6.8 102110 92
2006-12-12 08:05:55 51°16.3 2°53.292 8.6 24 6.8 102100 92
2006-12-12 08:06:00 51°16.317 2°53.276 8.4 308 6.8 102100 92
2006-12-12 08:06:04 51°16.33 2°53.265 7.3 18 6.9 102100 92
2006-12-12 08:06:09 51°16.347 2°53.25 8.3 36 6.9 102100 92
2006-12-12 08:06:15 51°16.367 2°53.232 8.1 20 6.9 102110 92
2006-12-12 08:06:20 51°16.384 2°53.217 7.9 309 6.9 102110 92
2006-12-12 08:06:25 51°16.4 2°53.203 7.9 22 7 102120 92
2006-12-12 08:06:30 51°16.417 2°53.188 8.1 309 7 102120 92
2006-12-12 08:06:35 51°16.434 2°53.173 7.7 21 7 102110 92
2006-12-12 08:06:40 51°16.451 2°53.159 7.3 308 7 102110 92
2006-12-12 08:06:44 51°16.465 2°53.147 8.2 19 7.1 102110 92
2006-12-12 08:06:49 51°16.482 2°53.131 6.6 311 7.1 102110 92
2006-12-12 08:06:54 51°16.499 2°53.117 7.2 20 7.1 102120 92
2006-12-12 08:07:00 51°16.519 2°53.1 8.8 240 7.1 102120 92
2006-12-12 08:07:04 51°16.533 2°53.087 6.6 21 7.2 102110 92
2006-12-12 08:07:10 51°16.553 2°53.07 7.4 309 7.2 102110 92
2006-12-12 08:07:14 51°16.567 2°53.058 7.6 21 7.2 102110 92
2006-12-12 08:07:20 51°16.587 2°53.041 7.2 32 7.2 102110 92
2006-12-12 08:07:25 51°16.604 2°53.026 7.1 24 7.2 102100 92
2006-12-12 08:07:29 51°16.618 2°53.014 6.9 242 7.2 102100 92
2006-12-12 08:07:35 51°16.639 2°52.996 7.3 20 7.3 102110 92
2006-12-12 08:07:40 51°16.656 2°52.982 7.4 308 7.3 102110 92
2006-12-12 08:07:45 51°16.673 2°52.968 7.7 20 7.3 102110 92
2006-12-12 08:07:49 51°16.687 2°52.956 8.1 240 7.3 102110 92
2006-12-12 08:07:54 51°16.704 2°52.943 5.7 21 7.3 102110 92
2006-12-12 08:08:00 51°16.725 2°52.926 8.1 33 7.3 102110 92
2006-12-12 08:08:05 51°16.741 2°52.912 6.8 22 7.4 102090 92
2006-12-12 08:08:10 51°16.758 2°52.897 7.1 308 7.4 102090 92
2006-12-12 08:08:14 51°16.771 2°52.885 6.9 19 7.4 102110 92
2006-12-12 08:08:20 51°16.791 2°52.868 7.2 310 7.4 102110 92
2006-12-12 08:08:25 51°16.809 2°52.854 8.1 24 7.4 102130 92
2006-12-12 08:08:30 51°16.825 2°52.84 6.6 240 7.4 102130 92
2006-12-12 08:08:34 51°16.839 2°52.828 7.1 21 7.5 102110 91
2006-12-12 08:08:40 51°16.859 2°52.81 6.2 242 7.5 102110 91
2006-12-12 08:08:45 51°16.876 2°52.796 6.5 24 7.5 102110 91
2006-12-12 08:08:50 51°16.893 2°52.781 7.6 303 7.5 102110 91
2006-12-12 08:08:55 51°16.909 2°52.766 6.6 25 7.5 102110 91
2006-12-12 08:09:00 51°16.926 2°52.751 6.3 307 7.5 102110 91
2006-12-12 08:09:05 51°16.943 2°52.736 6.8 19 7.5 102110 91
2006-12-12 08:09:10 51°16.96 2°52.721 6.9 304 7.5 102110 91
2006-12-12 08:09:15 51°16.978 2°52.707 6 20 7.6 102110 91
2006-12-12 08:09:20 51°16.996 2°52.694 6.6 244 7.6 102110 91
2006-12-12 08:09:24 51°17.01 2°52.685 6.3 22 7.6 102110 91
2006-12-12 08:09:30 51°17.033 2°52.671 7.4 309 7.6 102110 91
2006-12-12 08:09:34 51°17.047 2°52.662 6.8 248 7.6 102110 91
2006-12-12 08:09:40 51°17.07 2°52.653 5.5 250 7.6 102110 91
2006-12-12 08:09:45 51°17.089 2°52.644 4.3 18 7.6 102110 91
2006-12-12 08:09:49 51°17.104 2°52.639 5.3 247 7.6 102110 91
2006-12-12 08:09:55 51°17.127 2°52.632 6.6 257 7.6 102120 91
2006-12-12 08:10:00 51°17.146 2°52.629 6.3 30 7.6 102120 91
2006-12-12 08:10:05 51°17.165 2°52.624 6.5 255 7.7 102110 91
2006-12-12 08:10:10 51°17.184 2°52.619 6.8 31 7.7 102110 91
2006-12-12 08:10:14 51°17.2 2°52.616 6.7 20 7.7 102120 91
2006-12-12 08:10:20 51°17.223 2°52.61 5.2 309 7.7 102120 91
2006-12-12 08:10:24 51°17.238 2°52.609 6.3 247 7.7 102140 91
2006-12-12 08:10:30 51°17.261 2°52.606 6.7 303 7.7 102140 91
2006-12-12 08:10:35 51°17.281 2°52.604 8.4 252 7.7 102110 91
2006-12-12 08:10:40 51°17.3 2°52.602 4.4 302 7.7 102110 91
2006-12-12 08:10:44 51°17.316 2°52.601 6 23 7.8 102110 91
2006-12-12 08:10:50 51°17.339 2°52.599 6.1 244 7.8 102110 91
2006-12-12 08:10:54 51°17.355 2°52.598 6.8 22 7.8 102110 91
2006-12-12 08:11:00 51°17.378 2°52.596 6.6 249 7.8 102110 91
2006-12-12 08:11:05 51°17.398 2°52.595 6 23 7.8 102120 91
2006-12-12 08:11:10 51°17.417 2°52.595 6.6 243 7.8 102120 91
2006-12-12 08:11:15 51°17.437 2°52.595 4.7 20 7.9 102120 91
2006-12-12 08:11:20 51°17.457 2°52.593 6.7 250 7.9 102120 91
2006-12-12 08:11:25 51°17.476 2°52.591 7.3 251 7.9 102110 91
2006-12-12 08:11:29 51°17.491 2°52.591 8.1 246 7.9 102110 91
2006-12-12 08:11:34 51°17.511 2°52.589 8 248 7.9 102100 91
2006-12-12 08:11:40 51°17.534 2°52.587 6.1 246 7.9 102100 91
2006-12-12 08:11:45 51°17.554 2°52.588 6.2 244 8 102110 91
2006-12-12 08:11:50 51°17.574 2°52.585 5.5 306 8 102110 91
2006-12-12 08:11:54 51°17.589 2°52.584 6.2 22 8 102100 91
2006-12-12 08:12:00 51°17.613 2°52.583 8.8 242 8 102100 91
2006-12-12 08:12:05 51°17.632 2°52.583 9.6 246 8.1 102100 91
2006-12-12 08:12:10 51°17.652 2°52.581 8.6 308 8.1 102100 91
2006-12-12 08:12:14 51°17.667 2°52.58 8.2 24 8.1 102100 91
2006-12-12 08:12:20 51°17.69 2°52.579 9.7 247 8.1 102100 91
2006-12-12 08:12:25 51°17.71 2°52.578 9.1 250 8.1 102110 91
2006-12-12 08:12:30 51°17.729 2°52.577 7.7 249 8.1 102110 91
2006-12-12 08:12:34 51°17.745 2°52.576 8.5 25 8.2 102100 91
2006-12-12 08:12:40 51°17.769 2°52.575 8.7 250 8.2 102100 91
2006-12-12 08:12:45 51°17.788 2°52.575 8.1 249 8.2 102080 91
2006-12-12 08:12:50 51°17.808 2°52.576 7.6 303 8.2 102080 91
2006-12-12 08:12:54 51°17.823 2°52.575 6.8 245 8.2 102100 91
2006-12-12 08:13:00 51°17.847 2°52.576 8.8 303 8.2 102100 91
2006-12-12 08:13:05 51°17.866 2°52.579 7.3 28 8.3 102110 91
2006-12-12 08:13:09 51°17.882 2°52.579 8 304 8.3 102110 91
2006-12-12 08:13:14 51°17.902 2°52.581 10.5 21 8.3 102110 91
2006-12-12 08:13:20 51°17.925 2°52.583 12.3 251 8.3 102110 91
2006-12-12 08:13:25 51°17.945 2°52.587 10.5 26 8.3 102100 91
2006-12-12 08:13:30 51°17.965 2°52.589 10.5 305 8.3 102100 91
2006-12-12 08:13:35 51°17.984 2°52.594 11.6 19 8.4 102080 91
2006-12-12 08:13:40 51°18.003 2°52.597 9.7 244 8.4 102080 91
2006-12-12 08:13:45 51°18.022 2°52.603 11.9 249 8.4 102100 91
2006-12-12 08:13:50 51°18.042 2°52.608 12.1 304 8.4 102100 91
2006-12-12 08:13:54 51°18.057 2°52.614 12.5 251 8.5 102090 91
2006-12-12 08:14:00 51°18.079 2°52.625 8.6 261 8.5 102090 91
2006-12-12 08:14:04 51°18.094 2°52.635 10.4 259 8.5 102080 90
2006-12-12 08:14:10 51°18.114 2°52.652 7.7 308 8.5 102080 90
2006-12-12 08:14:14 51°18.128 2°52.663 8.5 261 8.5 102090 90
2006-12-12 08:14:20 51°18.148 2°52.683 6.8 259 8.5 102090 90
2006-12-12 08:14:25 51°18.162 2°52.704 8.9 257 8.6 102090 89
2006-12-12 08:14:30 51°18.179 2°52.722 6.6 304 8.6 102090 89
2006-12-12 08:14:35 51°18.192 2°52.744 5.2 265 8.6 102100 88
2006-12-12 08:14:40 51°18.207 2°52.764 5.9 306 8.6 102100 88
2006-12-12 08:14:45 51°18.219 2°52.788 5.4 265 8.7 102100 87
2006-12-12 08:14:49 51°18.23 2°52.804 5.3 267 8.7 102100 87
2006-12-12 08:14:54 51°18.244 2°52.827 5 263 8.8 102100 87
2006-12-12 08:15:00 51°18.262 2°52.851 5.5 44 8.8 102100 87
2006-12-12 08:15:04 51°18.273 2°52.87 4.3 262 8.9 102110 86
2006-12-12 08:15:10 51°18.291 2°52.893 3.4 264 8.9 102110 86
2006-12-12 08:15:15 51°18.303 2°52.917 4.2 260 8.9 102110 85
2006-12-12 08:15:20 51°18.32 2°52.935 6 305 8.9 102110 85
2006-12-12 08:15:24 51°18.331 2°52.952 6.8 28 9 102100 84
2006-12-12 08:15:30 51°18.347 2°52.979 7.7 261 9 102100 84
2006-12-12 08:15:35 51°18.365 2°52.994 8 263 9.1 102100 84
2006-12-12 08:15:40 51°18.377 2°53.018 5 262 9.1 102100 84
2006-12-12 08:15:44 51°18.391 2°53.031 6.7 262 9.1 102100 83
2006-12-12 08:15:50 51°18.407 2°53.059 6.6 302 9.1 102100 83
2006-12-12 08:15:54 51°18.421 2°53.071 5.2 263 9.2 102100 82
2006-12-12 08:16:00 51°18.437 2°53.098 5.8 261 9.2 102100 82
2006-12-12 08:16:05 51°18.454 2°53.115 6.5 264 9.2 102120 82
2006-12-12 08:16:10 51°18.468 2°53.135 5.7 270 9.2 102120 82
2006-12-12 08:16:14 51°18.48 2°53.152 5.6 264 9.3 102100 81
2006-12-12 08:16:20 51°18.498 2°53.176 5.1 260 9.3 102100 81
2006-12-12 08:16:25 51°18.513 2°53.197 4.3 266 9.4 102110 81
2006-12-12 08:16:30 51°18.529 2°53.214 8.5 306 9.4 102110 81
2006-12-12 08:16:34 51°18.54 2°53.231 4.6 262 9.4 102100 80
2006-12-12 08:16:40 51°18.559 2°53.255 7.7 305 9.4 102100 80
2006-12-12 08:16:45 51°18.575 2°53.273 6.7 256 9.5 102110 80
2006-12-12 08:16:50 51°18.589 2°53.295 9.3 258 9.5 102110 80
2006-12-12 08:16:55 51°18.606 2°53.312 6.4 262 9.5 102100 79
2006-12-12 08:17:00 51°18.621 2°53.332 7.4 305 9.5 102100 79
2006-12-12 08:17:05 51°18.636 2°53.351 4.4 263 9.5 102110 79
2006-12-12 08:17:09 51°18.648 2°53.366 5.1 263 9.5 102110 79
2006-12-12 08:17:15 51°18.666 2°53.39 7.3 264 9.6 102100 79
2006-12-12 08:17:20 51°18.681 2°53.411 6.9 261 9.6 102100 79
2006-12-12 08:17:24 51°18.695 2°53.424 5.7 262 9.6 102110 78
2006-12-12 08:17:30 51°18.712 2°53.449 6.7 267 9.6 102110 78
2006-12-12 08:17:34 51°18.724 2°53.465 7 264 9.6 102100 78
2006-12-12 08:17:40 51°18.742 2°53.489 6.2 309 9.6 102100 78
2006-12-12 08:17:45 51°18.757 2°53.508 5.7 264 9.6 102090 77
2006-12-12 08:17:50 51°18.771 2°53.53 5.6 265 9.6 102090 77
2006-12-12 08:17:55 51°18.787 2°53.549 7.2 259 9.7 102090 77
2006-12-12 08:18:00 51°18.803 2°53.566 7.1 268 9.7 102090 77
2006-12-12 08:18:04 51°18.814 2°53.583 7.1 267 9.7 102100 76
2006-12-12 08:18:10 51°18.832 2°53.606 7.2 307 9.7 102100 76
2006-12-12 08:18:15 51°18.846 2°53.628 4.3 263 9.7 102110 76
2006-12-12 08:18:20 51°18.862 2°53.645 4.7 270 9.7 102110 76
2006-12-12 08:18:25 51°18.876 2°53.666 7.7 269 9.7 102090 75
2006-12-12 08:18:29 51°18.889 2°53.681 6.4 267 9.7 102090 75
2006-12-12 08:18:35 51°18.908 2°53.703 7.5 267 9.8 102100 75
2006-12-12 08:18:40 51°18.924 2°53.722 5.9 263 9.8 102100 75
2006-12-12 08:18:45 51°18.94 2°53.741 5.9 263 9.8 102090 75
2006-12-12 08:18:49 51°18.952 2°53.755 5.3 267 9.8 102090 75
2006-12-12 08:18:54 51°18.967 2°53.775 4.1 265 9.8 102100 74
2006-12-12 08:19:00 51°18.986 2°53.796 5.1 260 9.8 102100 74
2006-12-12 08:19:05 51°19.001 2°53.816 5.9 269 9.8 102100 74
2006-12-12 08:19:10 51°19.017 2°53.835 5.7 309 9.8 102100 74
2006-12-12 08:19:14 51°19.029 2°53.85 6.4 264 9.8 102090 74
2006-12-12 08:19:20 51°19.048 2°53.871 4.7 304 9.8 102090 74
2006-12-12 08:19:25 51°19.064 2°53.888 8.6 257 9.9 102100 73
2006-12-12 08:19:30 51°19.079 2°53.908 5.7 310 9.9 102100 73
2006-12-12 08:19:34 51°19.092 2°53.923 7.3 263 9.9 102100 73
2006-12-12 08:19:40 51°19.112 2°53.943 5.9 272 9.9 102100 73
2006-12-12 08:19:45 51°19.126 2°53.963 5.5 266 9.9 102110 73
2006-12-12 08:19:50 51°19.142 2°53.981 3.9 268 9.9 102110 73
2006-12-12 08:19:54 51°19.155 2°53.997 5.1 265 9.9 102100 73
2006-12-12 08:20:00 51°19.174 2°54.018 4.9 304 9.9 102100 73
2006-12-12 08:20:05 51°19.188 2°54.039 3.6 264 10 102100 73
2006-12-12 08:20:10 51°19.206 2°54.053 6.3 309 10 102100 73
2006-12-12 08:20:15 51°19.221 2°54.074 6.1 264 10 102100 73
2006-12-12 08:20:20 51°19.238 2°54.089 6.3 39 10 102100 73
2006-12-12 08:20:24 51°19.248 2°54.108 6.7 269 10 102090 73
2006-12-12 08:20:29 51°19.266 2°54.122 6.1 306 10 102090 73
2006-12-12 08:20:35 51°19.285 2°54.146 9 270 10 102100 73
2006-12-12 08:20:40 51°19.301 2°54.163 5.3 265 10 102100 73
2006-12-12 08:20:45 51°19.317 2°54.181 6.1 265 10 102100 73
2006-12-12 08:20:49 51°19.328 2°54.197 5.6 261 10 102100 73
2006-12-12 08:20:54 51°19.345 2°54.214 8.7 23 10 102110 72
2006-12-12 08:21:00 51°19.363 2°54.237 6.8 37 10 102110 72
2006-12-12 08:21:05 51°19.377 2°54.258 6.9 27 10 102100 72
2006-12-12 08:21:10 51°19.392 2°54.276 7 306 10 102100 72
2006-12-12 08:21:14 51°19.404 2°54.293 4.5 263 10 102110 72
2006-12-12 08:21:20 51°19.424 2°54.313 4.5 262 10 102110 72
2006-12-12 08:21:25 51°19.438 2°54.333 6.5 260 10 102100 72
2006-12-12 08:21:30 51°19.453 2°54.352 4.1 307 10 102100 72
2006-12-12 08:21:34 51°19.465 2°54.367 6.1 257 10.1 102100 72
2006-12-12 08:21:40 51°19.482 2°54.392 5.2 309 10.1 102100 72
2006-12-12 08:21:45 51°19.499 2°54.409 5.2 266 10.1 102090 73
2006-12-12 08:21:50 51°19.514 2°54.429 5.3 304 10.1 102090 73
2006-12-12 08:21:54 51°19.527 2°54.443 7.9 267 10.1 102090 73
2006-12-12 08:22:00 51°19.545 2°54.466 4.6 260 10.1 102090 73
2006-12-12 08:22:05 51°19.561 2°54.485 7.2 256 10.1 102100 73
2006-12-12 08:22:10 51°19.577 2°54.505 10.1 259 10.1 102100 73
2006-12-12 08:22:14 51°19.589 2°54.519 9.9 258 10.1 102100 73
2006-12-12 08:22:20 51°19.607 2°54.542 7.3 261 10.1 102100 73
2006-12-12 08:22:25 51°19.624 2°54.56 9.6 260 10.1 102110 73
2006-12-12 08:22:29 51°19.636 2°54.576 7.8 265 10.1 102110 73
2006-12-12 08:22:35 51°19.655 2°54.598 7.1 264 10.1 102100 73
2006-12-12 08:22:40 51°19.669 2°54.62 8.9 260 10.1 102100 73
2006-12-12 08:22:45 51°19.686 2°54.635 7.2 262 10.1 102110 72
2006-12-12 08:22:49 51°19.698 2°54.652 8.1 302 10.1 102110 72
2006-12-12 08:22:54 51°19.715 2°54.669 7.8 260 10.1 102090 71
2006-12-12 08:23:00 51°19.732 2°54.695 10.8 260 10.1 102090 71
2006-12-12 08:23:05 51°19.75 2°54.71 9.2 262 10.1 102110 71
2006-12-12 08:23:10 51°19.764 2°54.729 7.6 307 10.1 102110 71
2006-12-12 08:23:14 51°19.775 2°54.747 8.1 256 10.1 102100 71
2006-12-12 08:23:20 51°19.796 2°54.766 7.3 267 10.1 102100 71
2006-12-12 08:23:25 51°19.811 2°54.783 7 264 10 102100 71
2006-12-12 08:23:30 51°19.825 2°54.805 6.9 310 10 102100 71
2006-12-12 08:23:34 51°19.839 2°54.817 8.3 260 10 102090 71
2006-12-12 08:23:40 51°19.857 2°54.841 6.7 263 10 102090 71
2006-12-12 08:23:45 51°19.872 2°54.86 6.9 266 10.1 102090 70
2006-12-12 08:23:50 51°19.888 2°54.879 9.4 257 10.1 102090 70
2006-12-12 08:23:54 51°19.902 2°54.892 8.7 260 10.1 102090 70
2006-12-12 08:24:00 51°19.919 2°54.919 6.1 260 10.1 102090 70
2006-12-12 08:24:05 51°19.936 2°54.935 5.9 268 10.1 102100 70
2006-12-12 08:24:10 51°19.949 2°54.958 7.1 310 10.1 102100 70
2006-12-12 08:24:14 51°19.964 2°54.97 6.4 263 10.1 102100 69
2006-12-12 08:24:20 51°19.981 2°54.995 9.6 258 10.1 102100 69
2006-12-12 08:24:25 51°19.997 2°55.013 9.4 258 10.1 102100 69
2006-12-12 08:24:29 51°20.01 2°55.029 8.1 309 10.1 102100 69
2006-12-12 08:24:34 51°20.026 2°55.046 7.2 263 10.1 102100 69
2006-12-12 08:24:40 51°20.042 2°55.073 5.9 264 10.1 102100 69
2006-12-12 08:24:45 51°20.058 2°55.091 7.6 266 10.1 102100 69
2006-12-12 08:24:50 51°20.072 2°55.113 5.1 304 10.1 102100 69
2006-12-12 08:24:55 51°20.089 2°55.13 6.9 260 10.1 102100 69
2006-12-12 08:25:00 51°20.102 2°55.154 5.2 308 10.1 102100 69
2006-12-12 08:25:05 51°20.118 2°55.171 5.8 265 10.1 102110 69
2006-12-12 08:25:10 51°20.132 2°55.195 6.3 303 10.1 102110 69
2006-12-12 08:25:14 51°20.146 2°55.208 5.1 264 10.1 102110 69
2006-12-12 08:25:20 51°20.163 2°55.234 7 262 10.1 102110 69
2006-12-12 08:25:25 51°20.178 2°55.255 6.9 268 10.1 102110 69
2006-12-12 08:25:30 51°20.194 2°55.275 4.8 307 10.1 102110 69
2006-12-12 08:25:34 51°20.205 2°55.293 5.9 270 10.1 102100 69
2006-12-12 08:25:40 51°20.224 2°55.318 5.6 262 10.1 102100 69
2006-12-12 08:25:45 51°20.24 2°55.337 6.3 267 10.1 102110 68
2006-12-12 08:25:49 51°20.252 2°55.353 4.7 255 10.1 102110 68
2006-12-12 08:25:54 51°20.266 2°55.376 5.9 257 10.1 102090 68
2006-12-12 08:26:00 51°20.285 2°55.399 6.4 258 10.1 102090 68
2006-12-12 08:26:05 51°20.298 2°55.421 5.1 269 10.1 102100 68
2006-12-12 08:26:09 51°20.311 2°55.437 4.3 262 10.1 102100 68
2006-12-12 08:26:14 51°20.326 2°55.458 6.2 263 10.1 102100 69
2006-12-12 08:26:20 51°20.343 2°55.484 6.2 310 10.1 102100 69
2006-12-12 08:26:24 51°20.354 2°55.503 5.8 268 10.2 102100 69
2006-12-12 08:26:30 51°20.371 2°55.53 6.9 303 10.2 102100 69
2006-12-12 08:26:35 51°20.385 2°55.554 7.6 28 10.2 102090 69
2006-12-12 08:26:40 51°20.398 2°55.577 7.2 307 10.2 102090 69
2006-12-12 08:26:44 51°20.409 2°55.595 5.9 266 10.1 102090 69
2006-12-12 08:26:50 51°20.424 2°55.625 8.2 270 10.1 102090 69
2006-12-12 08:26:54 51°20.436 2°55.642 7.2 24 10.1 102100 68
2006-12-12 08:27:00 51°20.45 2°55.673 9.8 270 10.1 102100 68
2006-12-12 08:27:05 51°20.464 2°55.694 9.7 270 10.1 102110 68
2006-12-12 08:27:10 51°20.475 2°55.719 5.3 307 10.1 102110 68
2006-12-12 08:27:15 51°20.49 2°55.742 8.6 268 10.1 102100 67
2006-12-12 08:27:20 51°20.503 2°55.764 6.6 36 10.1 102100 67
2006-12-12 08:27:25 51°20.514 2°55.789 7 23 10.1 102100 67
2006-12-12 08:27:29 51°20.526 2°55.806 8.6 41 10.1 102100 67
2006-12-12 08:27:35 51°20.541 2°55.834 6.6 27 10.1 102110 66
2006-12-12 08:27:40 51°20.556 2°55.856 5.7 265 10.1 102110 66
2006-12-12 08:27:45 51°20.569 2°55.878 6.1 270 10.1 102110 66
2006-12-12 08:27:50 51°20.581 2°55.902 5.6 80 10.1 102110 66
2006-12-12 08:27:54 51°20.591 2°55.921 8.4 270 10.1 102100 66
2006-12-12 08:28:00 51°20.606 2°55.951 9.8 13 10.1 102100 66
2006-12-12 08:28:05 51°20.621 2°55.972 8.2 25 10.1 102100 66
2006-12-12 08:28:10 51°20.633 2°55.997 8.5 57 10.1 102100 66
2006-12-12 08:28:14 51°20.643 2°56.017 6.5 270 10.1 102110 67
2006-12-12 08:28:20 51°20.66 2°56.044 6.9 309 10.1 102110 67
2006-12-12 08:28:25 51°20.669 2°56.072 4.5 28 10.1 102110 66
2006-12-12 08:28:30 51°20.682 2°56.096 6 32 10.1 102110 66
2006-12-12 08:28:34 51°20.691 2°56.116 5.7 26 10.1 102110 66
2006-12-12 08:28:40 51°20.705 2°56.145 7 51 10.1 102110 66
2006-12-12 08:28:45 51°20.717 2°56.17 6.8 21 10.1 102100 66
2006-12-12 08:28:50 51°20.729 2°56.194 7 30 10.1 102100 66
2006-12-12 08:28:55 51°20.741 2°56.218 7.3 23 10.1 102110 65
2006-12-12 08:29:00 51°20.751 2°56.244 5.6 58 10.1 102110 65
2006-12-12 08:29:04 51°20.762 2°56.262 5.1 23 10.1 102110 65
2006-12-12 08:29:10 51°20.777 2°56.29 6.1 270 10.1 102110 65
2006-12-12 08:29:15 51°20.79 2°56.313 6 269 10.1 102110 65
2006-12-12 08:29:20 51°20.802 2°56.337 5.4 270 10.1 102110 65
2006-12-12 08:29:24 51°20.812 2°56.356 6.4 269 10.1 102120 66
2006-12-12 08:29:29 51°20.823 2°56.381 6.6 36 10.1 102120 66
2006-12-12 08:29:35 51°20.838 2°56.41 6 24 10.1 102110 66
2006-12-12 08:29:40 51°20.851 2°56.434 6.8 32 10.1 102110 66
2006-12-12 08:29:45 51°20.865 2°56.457 6.1 27 10.1 102110 66
2006-12-12 08:29:49 51°20.872 2°56.478 4.2 42 10.1 102110 66
2006-12-12 08:29:54 51°20.885 2°56.501 4 269 10.1 102110 66
2006-12-12 08:30:00 51°20.9 2°56.531 6.2 38 10.1 102110 66
2006-12-12 08:30:05 51°20.913 2°56.554 4.8 263 10.1 102110 66
2006-12-12 08:30:10 51°20.923 2°56.579 4.8 307 10.1 102110 66
2006-12-12 08:30:14 51°20.931 2°56.6 4.2 269 10.2 102120 66
2006-12-12 08:30:20 51°20.949 2°56.626 3.2 267 10.2 102120 66
2006-12-12 08:30:25 51°20.959 2°56.651 2.6 30 10.2 102110 67
2006-12-12 08:30:30 51°20.971 2°56.675 4.9 49 10.2 102110 67
2006-12-12 08:30:34 51°20.981 2°56.694 5.7 269 10.2 102120 67
2006-12-12 08:30:40 51°20.994 2°56.724 6.2 300 10.2 102120 67
2006-12-12 08:30:45 51°21.007 2°56.748 6.7 270 10.2 102100 67
2006-12-12 08:30:50 51°21.018 2°56.773 6 35 10.2 102100 67
2006-12-12 08:30:54 51°21.028 2°56.792 8.5 23 10.2 102120 68
2006-12-12 08:31:00 51°21.042 2°56.822 8.2 37 10.2 102120 68
2006-12-12 08:31:04 51°21.053 2°56.84 8.4 23 10.2 102110 68
2006-12-12 08:31:10 51°21.066 2°56.871 5.2 263 10.2 102110 68
2006-12-12 08:31:14 51°21.078 2°56.887 4.6 269 10.2 102110 67
2006-12-12 08:31:20 51°21.091 2°56.917 5.5 52 10.2 102110 67
2006-12-12 08:31:25 51°21.104 2°56.941 5.4 25 10.1 102110 67
2006-12-12 08:31:30 51°21.115 2°56.966 4.7 269 10.1 102110 67
2006-12-12 08:31:34 51°21.126 2°56.984 4.7 31 10.2 102110 67
2006-12-12 08:31:40 51°21.138 2°57.017 3.5 341 10.2 102110 67
2006-12-12 08:31:45 51°21.15 2°57.039 4.1 28 10.2 102100 67
2006-12-12 08:31:50 51°21.159 2°57.067 3.7 256 10.2 102100 67
2006-12-12 08:31:55 51°21.172 2°57.093 4.1 268 10.2 102110 68
2006-12-12 08:32:00 51°21.185 2°57.115 5.6 29 10.2 102110 68
2006-12-12 08:32:05 51°21.192 2°57.141 4.9 17 10.2 102100 68
2006-12-12 08:32:09 51°21.201 2°57.162 6.4 30 10.2 102100 68
2006-12-12 08:32:14 51°21.213 2°57.189 6.6 25 10.2 102110 68
2006-12-12 08:32:20 51°21.227 2°57.221 5.2 37 10.2 102110 68
2006-12-12 08:32:24 51°21.235 2°57.242 6.6 25 10.2 102100 68
2006-12-12 08:32:30 51°21.248 2°57.271 5.1 55 10.2 102100 68
2006-12-12 08:32:34 51°21.256 2°57.294 5.8 19 10.1 102110 68
2006-12-12 08:32:40 51°21.273 2°57.32 4.2 304 10.1 102110 68
2006-12-12 08:32:45 51°21.285 2°57.343 5.2 33 10.2 102110 68
2006-12-12 08:32:50 51°21.296 2°57.368 4.3 54 10.2 102110 68
2006-12-12 08:32:54 51°21.305 2°57.388 4.3 24 10.2 102120 67
2006-12-12 08:33:00 51°21.319 2°57.418 6.2 51 10.2 102120 67
2006-12-12 08:33:05 51°21.329 2°57.443 4.9 25 10.2 102100 67
2006-12-12 08:33:10 51°21.34 2°57.468 3.6 269 10.2 102100 67
2006-12-12 08:33:14 51°21.35 2°57.489 4.6 23 10.2 102110 68
2006-12-12 08:33:20 51°21.364 2°57.516 3.8 39 10.2 102110 68
2006-12-12 08:33:25 51°21.373 2°57.543 4.6 20 10.2 102110 68
2006-12-12 08:33:30 51°21.384 2°57.569 3 30 10.2 102110 68
2006-12-12 08:33:35 51°21.393 2°57.594 4.5 21 10.2 102110 68
2006-12-12 08:33:40 51°21.404 2°57.619 4.4 269 10.2 102110 68
2006-12-12 08:33:45 51°21.417 2°57.643 3.7 270 10.2 102110 68
2006-12-12 08:33:50 51°21.428 2°57.668 5.8 33 10.2 102110 68
2006-12-12 08:33:54 51°21.435 2°57.689 6.1 23 10.2 102120 68
2006-12-12 08:34:00 51°21.45 2°57.719 6 35 10.2 102120 68
2006-12-12 08:34:05 51°21.461 2°57.744 6.1 20 10.2 102110 68
2006-12-12 08:34:10 51°21.473 2°57.769 7.4 51 10.2 102110 68
2006-12-12 08:34:15 51°21.485 2°57.793 7.6 20 10.2 102110 68
2006-12-12 08:34:20 51°21.495 2°57.818 6 31 10.2 102110 68
2006-12-12 08:34:25 51°21.505 2°57.841 5.4 25 10.2 102110 68
2006-12-12 08:34:30 51°21.515 2°57.863 5.1 49 10.2 102110 68
2006-12-12 08:34:34 51°21.522 2°57.881 6.3 18 10.1 102110 67
2006-12-12 08:34:40 51°21.531 2°57.905 3.6 37 10.1 102110 67
2006-12-12 08:34:45 51°21.537 2°57.928 4.1 27 10.2 102110 67
2006-12-12 08:34:50 51°21.544 2°57.949 5 32 10.2 102110 67
2006-12-12 08:34:54 51°21.546 2°57.966 4.9 26 10.2 102110 68
2006-12-12 08:35:00 51°21.553 2°57.991 5.6 29 10.2 102110 68
2006-12-12 08:35:05 51°21.556 2°58.011 7.2 23 10.2 102110 68
2006-12-12 08:35:10 51°21.56 2°58.029 5.8 55 10.2 102110 68
2006-12-12 08:35:15 51°21.564 2°58.047 7.7 23 10.3 102110 68
2006-12-12 08:35:20 51°21.567 2°58.065 5.4 57 10.3 102110 68
2006-12-12 08:35:25 51°21.57 2°58.082 6.2 27 10.3 102110 69
2006-12-12 08:35:29 51°21.573 2°58.095 6.8 33 10.3 102110 69
2006-12-12 08:35:35 51°21.577 2°58.114 7.2 20 10.3 102110 68
2006-12-12 08:35:40 51°21.58 2°58.13 7.6 31 10.3 102110 68
2006-12-12 08:35:44 51°21.583 2°58.142 9.1 20 10.3 102110 67
2006-12-12 08:35:50 51°21.586 2°58.16 7 35 10.3 102110 67
2006-12-12 08:35:55 51°21.589 2°58.175 7.2 26 10.3 102110 68
2006-12-12 08:36:00 51°21.592 2°58.189 7.2 36 10.3 102110 68
2006-12-12 08:36:05 51°21.595 2°58.203 9.2 23 10.3 102100 67
2006-12-12 08:36:09 51°21.598 2°58.214 6.3 56 10.3 102100 67
2006-12-12 08:36:14 51°21.601 2°58.227 6.3 23 10.3 102110 67
2006-12-12 08:36:20 51°21.604 2°58.242 6.3 34 10.3 102110 67
2006-12-12 08:36:25 51°21.607 2°58.255 6.3 23 10.3 102120 67
2006-12-12 08:36:30 51°21.61 2°58.268 6 53 10.3 102120 67
2006-12-12 08:36:35 51°21.612 2°58.28 5.4 28 10.3 102110 67
2006-12-12 08:36:40 51°21.615 2°58.292 6.1 40 10.3 102110 67
2006-12-12 08:36:45 51°21.618 2°58.304 6.1 20 10.4 102110 67
2006-12-12 08:36:50 51°21.621 2°58.316 6.5 75 10.4 102110 67
2006-12-12 08:36:54 51°21.624 2°58.325 7.2 26 10.4 102110 67
2006-12-12 08:37:00 51°21.628 2°58.337 10.8 35 10.4 102110 67
2006-12-12 08:37:05 51°21.632 2°58.346 9.5 20 10.5 102110 67
2006-12-12 08:37:09 51°21.635 2°58.353 9.9 35 10.5 102110 67
2006-12-12 08:37:14 51°21.64 2°58.361 12 21 10.6 102110 66
2006-12-12 08:37:20 51°21.646 2°58.37 12.2 34 10.6 102110 66
2006-12-12 08:37:25 51°21.651 2°58.375 12.4 23 10.5 102100 66
2006-12-12 08:37:30 51°21.656 2°58.381 11.1 310 10.5 102100 66
2006-12-12 08:37:35 51°21.662 2°58.386 11 268 10.5 102110 66
2006-12-12 08:37:40 51°21.669 2°58.389 11.1 308 10.5 102110 66
2006-12-12 08:37:45 51°21.676 2°58.391 13.7 258 10.5 102090 65
2006-12-12 08:37:50 51°21.684 2°58.391 13 255 10.5 102090 65
2006-12-12 08:37:54 51°21.689 2°58.392 15 254 10.5 102080 65
2006-12-12 08:38:00 51°21.697 2°58.391 12.7 251 10.5 102080 65
2006-12-12 08:38:05 51°21.702 2°58.389 11.6 248 10.5 102080 65
2006-12-12 08:38:10 51°21.708 2°58.387 12.9 246 10.5 102080 65
2006-12-12 08:38:15 51°21.714 2°58.383 13.7 21 10.4 102080 65
2006-12-12 08:38:20 51°21.719 2°58.38 14 240 10.4 102080 65
2006-12-12 08:38:25 51°21.724 2°58.375 14 25 10.4 102080 65
2006-12-12 08:38:30 51°21.729 2°58.37 12.9 235 10.4 102080 65
2006-12-12 08:38:35 51°21.733 2°58.366 12.6 26 10.4 102060 66
2006-12-12 08:38:40 51°21.736 2°58.362 15 35 10.4 102060 66
2006-12-12 08:38:45 51°21.74 2°58.359 12.1 22 10.4 102060 66
2006-12-12 08:38:50 51°21.742 2°58.355 11.3 310 10.4 102060 66
2006-12-12 08:38:54 51°21.744 2°58.352 11.8 23 10.4 102080 66
2006-12-12 08:39:00 51°21.747 2°58.349 13 37 10.4 102080 66
2006-12-12 08:39:05 51°21.749 2°58.346 15.7 24 10.4 102050 67
2006-12-12 08:39:10 51°21.752 2°58.343 14.3 305 10.4 102050 67
2006-12-12 08:39:14 51°21.753 2°58.34 14.6 315 10.4 102050 67
2006-12-12 08:39:20 51°21.755 2°58.335 13.7 319 10.4 102050 67
2006-12-12 08:39:25 51°21.756 2°58.33 14.7 321 10.4 102070 67
2006-12-12 08:39:30 51°21.757 2°58.325 13 325 10.4 102070 67
2006-12-12 08:39:34 51°21.758 2°58.321 13.7 328 10.4 102060 66
2006-12-12 08:39:40 51°21.758 2°58.315 13.3 331 10.4 102060 66
2006-12-12 08:39:45 51°21.757 2°58.309 14.5 334 10.3 102080 66
2006-12-12 08:39:50 51°21.756 2°58.303 15.6 338 10.3 102080 66
2006-12-12 08:39:55 51°21.755 2°58.297 15.3 338 10.3 102080 67
2006-12-12 08:40:00 51°21.753 2°58.291 13.6 342 10.3 102080 67
2006-12-12 08:40:05 51°21.751 2°58.286 13.3 343 10.3 102070 67
2006-12-12 08:40:10 51°21.748 2°58.28 15.3 343 10.3 102070 67
2006-12-12 08:40:15 51°21.745 2°58.275 14.7 343 10.3 102060 67
2006-12-12 08:40:20 51°21.743 2°58.269 14.6 345 10.3 102060 67
2006-12-12 08:40:24 51°21.74 2°58.266 14.9 346 10.3 102050 67
2006-12-12 08:40:30 51°21.736 2°58.26 15.4 347 10.3 102050 67
2006-12-12 08:40:35 51°21.733 2°58.257 14.7 346 10.3 102060 67
2006-12-12 08:40:40 51°21.731 2°58.252 15.1 345 10.3 102060 67
2006-12-12 08:40:45 51°21.728 2°58.248 15.6 344 10.3 102060 67
2006-12-12 08:40:49 51°21.726 2°58.245 14 344 10.3 102060 67
2006-12-12 08:40:55 51°21.723 2°58.24 13.5 342 10.3 102070 67
2006-12-12 08:41:00 51°21.721 2°58.237 14 343 10.3 102070 67
2006-12-12 08:41:05 51°21.72 2°58.233 12.5 337 10.3 102080 67
2006-12-12 08:41:10 51°21.718 2°58.23 13.2 337 10.3 102080 67
2006-12-12 08:41:15 51°21.717 2°58.228 12 341 10.3 102070 67
2006-12-12 08:41:20 51°21.716 2°58.225 13.9 343 10.3 102070 67
2006-12-12 08:41:25 51°21.714 2°58.222 14.4 337 10.2 102060 68
2006-12-12 08:41:30 51°21.714 2°58.219 12.9 336 10.2 102060 68
2006-12-12 08:41:34 51°21.713 2°58.217 13.7 339 10.3 102090 68
2006-12-12 08:41:40 51°21.712 2°58.214 12.4 336 10.3 102090 68
2006-12-12 08:41:45 51°21.712 2°58.212 12.2 339 10.2 102090 69
2006-12-12 08:41:50 51°21.712 2°58.211 14.2 339 10.2 102090 69
2006-12-12 08:41:54 51°21.711 2°58.209 14.1 338 10.2 102090 68
2006-12-12 08:42:00 51°21.711 2°58.208 12.6 335 10.2 102090 68
2006-12-12 08:42:05 51°21.711 2°58.206 13.1 336 10.2 102080 68
2006-12-12 08:42:10 51°21.711 2°58.205 12.5 337 10.2 102080 68
2006-12-12 08:42:15 51°21.71 2°58.203 12.5 337 10.2 102080 68
2006-12-12 08:42:20 51°21.71 2°58.202 12.3 334 10.2 102080 68
2006-12-12 08:42:25 51°21.709 2°58.199 12.7 334 10.2 102080 68
2006-12-12 08:42:30 51°21.709 2°58.197 12.1 335 10.2 102080 68
2006-12-12 08:42:34 51°21.708 2°58.195 10.8 334 10.2 102090 68
2006-12-12 08:42:40 51°21.708 2°58.192 10.3 336 10.2 102090 68
2006-12-12 08:42:45 51°21.708 2°58.189 10.9 335 10.2 102090 68
2006-12-12 08:42:50 51°21.707 2°58.185 10.8 331 10.2 102090 68
2006-12-12 08:42:55 51°21.707 2°58.182 12 333 10.2 102090 69
2006-12-12 08:43:00 51°21.707 2°58.178 12.2 332 10.2 102090 69
2006-12-12 08:43:05 51°21.706 2°58.174 11.9 332 10.2 102090 69
2006-12-12 08:43:10 51°21.706 2°58.17 12.3 330 10.2 102090 69
2006-12-12 08:43:15 51°21.706 2°58.166 14.1 328 10.2 102090 70
2006-12-12 08:43:20 51°21.706 2°58.163 13.3 332 10.2 102090 70
2006-12-12 08:43:25 51°21.705 2°58.16 13.4 328 10.2 102090 70
2006-12-12 08:43:30 51°21.705 2°58.157 11.4 331 10.2 102090 70
2006-12-12 08:43:34 51°21.706 2°58.155 12 328 10.2 102090 70
2006-12-12 08:43:40 51°21.706 2°58.154 13.1 331 10.2 102090 70
2006-12-12 08:43:45 51°21.706 2°58.153 12.6 329 10.2 102090 70
2006-12-12 08:43:50 51°21.707 2°58.152 12.6 282 10.2 102090 70
2006-12-12 08:43:54 51°21.707 2°58.152 13.2 329 10.2 102090 70
2006-12-12 08:44:00 51°21.707 2°58.152 12.5 331 10.2 102090 70
2006-12-12 08:44:05 51°21.707 2°58.153 12.5 329 10.2 102090 70
2006-12-12 08:44:10 51°21.708 2°58.154 11.5 333 10.2 102090 70
2006-12-12 08:44:14 51°21.708 2°58.155 10.1 327 10.2 102090 70
2006-12-12 08:44:20 51°21.708 2°58.156 11.7 331 10.2 102090 70
2006-12-12 08:44:25 51°21.709 2°58.157 10.8 331 10.2 102090 70
2006-12-12 08:44:30 51°21.709 2°58.158 11.7 333 10.2 102090 70
2006-12-12 08:44:35 51°21.71 2°58.159 11.4 336 10.1 102100 69
2006-12-12 08:44:40 51°21.71 2°58.161 13.8 335 10.1 102100 69
2006-12-12 08:44:44 51°21.71 2°58.163 12.8 337 10.1 102090 69
2006-12-12 08:44:50 51°21.711 2°58.164 12.3 341 10.1 102090 69
2006-12-12 08:44:55 51°21.711 2°58.166 10.6 342 10.2 102090 69
2006-12-12 08:45:00 51°21.712 2°58.168 11.7 344 10.2 102090 69
2006-12-12 08:45:04 51°21.712 2°58.169 11.2 342 10.1 102090 69
2006-12-12 08:45:10 51°21.713 2°58.172 11.7 344 10.1 102090 69
2006-12-12 08:45:15 51°21.713 2°58.175 11.6 345 10.1 102090 69
2006-12-12 08:45:20 51°21.713 2°58.178 11.2 352 10.1 102090 69
2006-12-12 08:45:25 51°21.714 2°58.179 12.4 345 10.1 102090 69
2006-12-12 08:45:29 51°21.715 2°58.181 11.1 352 10.1 102090 69
2006-12-12 08:45:35 51°21.716 2°58.183 12.5 348 10.1 102070 69
2006-12-12 08:45:40 51°21.716 2°58.185 10.4 351 10.1 102070 69
2006-12-12 08:45:45 51°21.717 2°58.187 11.2 355 10.1 102090 70
2006-12-12 08:45:49 51°21.717 2°58.188 12.9 353 10.1 102090 70
2006-12-12 08:45:54 51°21.718 2°58.19 12.6 355 10.2 102080 70
2006-12-12 08:46:00 51°21.718 2°58.192 13.2 354 10.2 102080 70
2006-12-12 08:46:05 51°21.718 2°58.194 13.1 352 10.2 102070 70
2006-12-12 08:46:10 51°21.718 2°58.195 12.4 359 10.2 102070 70
2006-12-12 08:46:14 51°21.719 2°58.197 11.2 2 10.1 102080 70
2006-12-12 08:46:20 51°21.719 2°58.2 11.7 358 10.1 102080 70
2006-12-12 08:46:25 51°21.719 2°58.201 10.6 2 10.1 102070 70
2006-12-12 08:46:30 51°21.719 2°58.202 11.4 -999 10.1 102070 70
2006-12-12 08:46:34 51°21.719 2°58.204 12.7 -999 10.1 102060 70
2006-12-12 08:46:40 51°21.719 2°58.206 11.6 -999 10.1 102060 70
2006-12-12 08:46:45 51°21.718 2°58.207 10.7 359 10.2 102080 70
2006-12-12 08:46:50 51°21.717 2°58.209 9 3 10.2 102080 70
2006-12-12 08:46:55 51°21.717 2°58.21 11.1 1 10.2 102070 71
2006-12-12 08:47:00 51°21.716 2°58.212 10.4 359 10.2 102070 71
2006-12-12 08:47:05 51°21.716 2°58.213 11 357 10.2 102070 71
2006-12-12 08:47:10 51°21.715 2°58.214 12.2 358 10.2 102070 71
2006-12-12 08:47:15 51°21.714 2°58.215 10.4 1 10.1 102070 71
2006-12-12 08:47:20 51°21.713 2°58.216 10.2 358 10.1 102070 71
2006-12-12 08:47:24 51°21.712 2°58.217 11.7 356 10.2 102080 71
2006-12-12 08:47:30 51°21.712 2°58.218 11.5 358 10.2 102080 71
2006-12-12 08:47:35 51°21.711 2°58.218 10.5 357 10.2 102070 71
2006-12-12 08:47:40 51°21.71 2°58.218 12.3 355 10.2 102070 71
2006-12-12 08:47:45 51°21.708 2°58.218 11.2 354 10.2 102080 72
2006-12-12 08:47:49 51°21.707 2°58.218 13.1 352 10.2 102080 72
2006-12-12 08:47:55 51°21.705 2°58.217 12.2 352 10.2 102080 72
2006-12-12 08:48:00 51°21.703 2°58.216 11.8 349 10.2 102080 72
2006-12-12 08:48:05 51°21.702 2°58.216 12.3 350 10.2 102080 73
2006-12-12 08:48:09 51°21.7 2°58.215 11.8 346 10.2 102080 73
2006-12-12 08:48:14 51°21.698 2°58.214 12.9 348 10.2 102080 72
2006-12-12 08:48:20 51°21.697 2°58.211 12.1 343 10.2 102080 72
2006-12-12 08:48:25 51°21.695 2°58.21 12.9 343 10.1 102070 72
2006-12-12 08:48:30 51°21.694 2°58.208 14 340 10.1 102070 72
2006-12-12 08:48:35 51°21.693 2°58.206 13 342 10.2 102080 72
2006-12-12 08:48:40 51°21.692 2°58.205 12.9 342 10.2 102080 72
2006-12-12 08:48:45 51°21.69 2°58.203 11.8 341 10.1 102070 72
2006-12-12 08:48:50 51°21.69 2°58.202 13.5 342 10.1 102070 72
2006-12-12 08:48:54 51°21.689 2°58.201 13.3 343 10.1 102080 72
2006-12-12 08:49:00 51°21.688 2°58.199 12.9 342 10.1 102080 72
2006-12-12 08:49:05 51°21.688 2°58.198 12.4 344 10.1 102080 72
2006-12-12 08:49:10 51°21.687 2°58.198 10.4 343 10.1 102080 72
2006-12-12 08:49:15 51°21.686 2°58.197 9.7 340 10.1 102070 72
2006-12-12 08:49:20 51°21.686 2°58.196 9.5 339 10.1 102070 72
2006-12-12 08:49:25 51°21.685 2°58.195 9.3 339 10.1 102080 72
2006-12-12 08:49:30 51°21.685 2°58.194 9.8 338 10.1 102080 72
2006-12-12 08:49:34 51°21.685 2°58.193 10.2 336 10.2 102080 72
2006-12-12 08:49:40 51°21.684 2°58.192 10.9 335 10.2 102080 72
2006-12-12 08:49:45 51°21.684 2°58.191 10.2 331 10.2 102100 73
2006-12-12 08:49:50 51°21.684 2°58.19 12.3 333 10.2 102100 73
2006-12-12 08:49:55 51°21.684 2°58.189 11.6 332 10.2 102100 73
2006-12-12 08:50:00 51°21.684 2°58.188 12.1 335 10.2 102100 73
2006-12-12 08:50:05 51°21.683 2°58.188 9.9 337 10.2 102090 73
2006-12-12 08:50:09 51°21.684 2°58.188 10.6 339 10.2 102090 73
2006-12-12 08:50:15 51°21.683 2°58.188 12.2 338 10.2 102090 73
2006-12-12 08:50:20 51°21.683 2°58.188 11.9 337 10.2 102090 73
2006-12-12 08:50:25 51°21.683 2°58.188 12.5 337 10.2 102080 73
2006-12-12 08:50:29 51°21.683 2°58.188 11.2 335 10.2 102080 73
2006-12-12 08:50:34 51°21.683 2°58.188 11.9 338 10.2 102090 73
2006-12-12 08:50:40 51°21.683 2°58.188 11.6 339 10.2 102090 73
2006-12-12 08:50:45 51°21.682 2°58.188 12.2 340 10.2 102100 73
2006-12-12 08:50:50 51°21.682 2°58.189 10.2 342 10.2 102100 73
2006-12-12 08:50:55 51°21.682 2°58.19 12.5 335 10.1 102100 73
2006-12-12 08:51:00 51°21.682 2°58.19 12.5 340 10.1 102100 73
2006-12-12 08:51:05 51°21.682 2°58.191 12.2 339 10.1 102100 73
2006-12-12 08:51:10 51°21.682 2°58.191 11.1 341 10.1 102100 73
2006-12-12 08:51:15 51°21.683 2°58.192 11.5 339 10.2 102090 73
2006-12-12 08:51:20 51°21.683 2°58.192 10.5 340 10.2 102090 73
2006-12-12 08:51:25 51°21.683 2°58.193 9.7 341 10.2 102100 72
2006-12-12 08:51:30 51°21.683 2°58.193 10.7 340 10.2 102100 72
2006-12-12 08:51:35 51°21.682 2°58.194 11.4 341 10.2 102100 73
2006-12-12 08:51:40 51°21.682 2°58.194 12.3 342 10.2 102100 73
2006-12-12 08:51:45 51°21.682 2°58.194 12 344 10.2 102090 73
2006-12-12 08:51:50 51°21.681 2°58.194 10.7 344 10.2 102090 73
2006-12-12 08:51:55 51°21.681 2°58.194 12.2 343 10.2 102100 73
2006-12-12 08:52:00 51°21.681 2°58.195 11 343 10.2 102100 73
2006-12-12 08:52:05 51°21.681 2°58.196 12.4 340 10.2 102080 72
2006-12-12 08:52:10 51°21.681 2°58.196 13.2 344 10.2 102080 72
2006-12-12 08:52:14 51°21.681 2°58.196 11.1 346 10.1 102080 72
2006-12-12 08:52:20 51°21.68 2°58.197 11 350 10.1 102080 72
2006-12-12 08:52:25 51°21.68 2°58.197 10.6 346 10.2 102090 72
2006-12-12 08:52:30 51°21.68 2°58.198 9.4 346 10.2 102090 72
2006-12-12 08:52:35 51°21.679 2°58.199 12 341 10.1 102080 71
2006-12-12 08:52:40 51°21.679 2°58.199 11.7 341 10.1 102080 71
2006-12-12 08:52:45 51°21.678 2°58.2 11.7 339 10.2 102080 72
2006-12-12 08:52:50 51°21.678 2°58.2 12.4 342 10.2 102080 72
2006-12-12 08:52:54 51°21.678 2°58.2 12 340 10.2 102080 72
2006-12-12 08:53:00 51°21.678 2°58.2 13.3 344 10.2 102080 72
2006-12-12 08:53:05 51°21.677 2°58.201 10.9 342 10.2 102080 72
2006-12-12 08:53:10 51°21.677 2°58.201 13.3 344 10.2 102080 72
2006-12-12 08:53:14 51°21.676 2°58.201 12.6 342 10.2 102100 72
2006-12-12 08:53:20 51°21.676 2°58.202 13.3 343 10.2 102100 72
2006-12-12 08:53:25 51°21.676 2°58.202 12.4 340 10.2 102090 72
2006-12-12 08:53:30 51°21.675 2°58.202 10.6 340 10.2 102090 72
2006-12-12 08:53:34 51°21.675 2°58.202 11.3 337 10.2 102080 71
2006-12-12 08:53:40 51°21.675 2°58.202 12.9 340 10.2 102080 71
2006-12-12 08:53:45 51°21.674 2°58.202 12.3 345 10.2 102080 71
2006-12-12 08:53:50 51°21.674 2°58.201 11.8 337 10.2 102080 71
2006-12-12 08:53:54 51°21.673 2°58.201 11.8 340 10.2 102090 71
2006-12-12 08:54:00 51°21.673 2°58.2 12 341 10.2 102090 71
2006-12-12 08:54:05 51°21.673 2°58.2 11.5 337 10.2 102090 71
2006-12-12 08:54:10 51°21.673 2°58.2 12 333 10.2 102090 71
2006-12-12 08:54:15 51°21.672 2°58.2 10.8 340 10.2 102080 71
2006-12-12 08:54:20 51°21.672 2°58.199 12.7 332 10.2 102080 71
2006-12-12 08:54:24 51°21.671 2°58.199 12 339 10.2 102080 71
2006-12-12 08:54:29 51°21.671 2°58.198 12.9 331 10.2 102080 71
2006-12-12 08:54:35 51°21.671 2°58.197 13.4 331 10.2 102080 71
2006-12-12 08:54:40 51°21.671 2°58.197 12.7 332 10.2 102080 71
2006-12-12 08:54:45 51°21.671 2°58.196 13.5 332 10.2 102090 71
2006-12-12 08:54:50 51°21.671 2°58.195 12.4 281 10.2 102090 71
2006-12-12 08:54:55 51°21.671 2°58.194 13.1 330 10.2 102090 71
2006-12-12 08:55:00 51°21.67 2°58.194 11.3 329 10.2 102090 71
2006-12-12 08:55:05 51°21.67 2°58.194 12.2 327 10.2 102080 70
2006-12-12 08:55:10 51°21.671 2°58.193 9.8 330 10.2 102080 70
2006-12-12 08:55:14 51°21.671 2°58.193 11.4 328 10.1 102080 70
2006-12-12 08:55:20 51°21.671 2°58.192 11.2 324 10.1 102080 70
2006-12-12 08:55:25 51°21.671 2°58.191 10.8 328 10.2 102090 70
2006-12-12 08:55:30 51°21.672 2°58.19 10.2 323 10.2 102090 70
2006-12-12 08:55:34 51°21.672 2°58.188 10.3 326 10.2 102080 70
2006-12-12 08:55:40 51°21.672 2°58.187 10.3 326 10.2 102080 70
2006-12-12 08:55:45 51°21.673 2°58.186 11.5 323 10.2 102080 70
2006-12-12 08:55:50 51°21.673 2°58.184 12 305 10.2 102080 70
2006-12-12 08:55:54 51°21.674 2°58.183 11.8 322 10.2 102070 71
2006-12-12 08:56:00 51°21.675 2°58.181 9.6 323 10.2 102070 71
2006-12-12 08:56:05 51°21.675 2°58.18 12.3 321 10.3 102080 71
2006-12-12 08:56:10 51°21.676 2°58.178 12.7 303 10.3 102080 71
2006-12-12 08:56:14 51°21.676 2°58.177 9.9 323 10.2 102090 71
2006-12-12 08:56:20 51°21.677 2°58.175 11.7 307 10.2 102090 71
2006-12-12 08:56:24 51°21.678 2°58.173 11.8 324 10.2 102070 71
2006-12-12 08:56:30 51°21.678 2°58.172 10.8 304 10.2 102070 71
2006-12-12 08:56:35 51°21.679 2°58.171 11.9 326 10.2 102070 71
2006-12-12 08:56:40 51°21.679 2°58.17 10.3 305 10.2 102070 71
2006-12-12 08:56:45 51°21.68 2°58.17 11.7 327 10.3 102080 71
2006-12-12 08:56:50 51°21.68 2°58.169 13.3 327 10.3 102080 71
2006-12-12 08:56:54 51°21.68 2°58.168 12.1 327 10.3 102070 72
2006-12-12 08:57:00 51°21.681 2°58.167 11.5 328 10.3 102070 72
2006-12-12 08:57:05 51°21.682 2°58.166 11.9 329 10.2 102080 72
2006-12-12 08:57:10 51°21.682 2°58.165 10.7 330 10.2 102080 72
2006-12-12 08:57:15 51°21.683 2°58.164 11.8 326 10.2 102090 71
2006-12-12 08:57:20 51°21.684 2°58.163 10 329 10.2 102090 71
2006-12-12 08:57:24 51°21.684 2°58.162 12.6 327 10.2 102080 71
2006-12-12 08:57:30 51°21.685 2°58.16 12.3 325 10.2 102080 71
2006-12-12 08:57:34 51°21.686 2°58.16 12.8 328 10.2 102080 71
2006-12-12 08:57:40 51°21.686 2°58.158 11.7 325 10.2 102080 71
2006-12-12 08:57:45 51°21.687 2°58.157 12.3 328 10.2 102070 71
2006-12-12 08:57:50 51°21.687 2°58.156 12.3 328 10.2 102070 71
2006-12-12 08:57:54 51°21.688 2°58.155 12.4 326 10.2 102080 70
2006-12-12 08:58:00 51°21.688 2°58.154 10.4 324 10.2 102080 70
2006-12-12 08:58:05 51°21.689 2°58.153 11.2 326 10.2 102060 70
2006-12-12 08:58:09 51°21.689 2°58.153 12.8 327 10.2 102060 70
2006-12-12 08:58:15 51°21.69 2°58.152 12.4 324 10.2 102070 69
2006-12-12 08:58:20 51°21.691 2°58.151 12.3 303 10.2 102070 69
2006-12-12 08:58:25 51°21.691 2°58.15 13.7 322 10.2 102080 69
2006-12-12 08:58:30 51°21.692 2°58.149 11.7 326 10.2 102080 69
2006-12-12 08:58:34 51°21.693 2°58.149 12.4 324 10.2 102070 69
2006-12-12 08:58:40 51°21.693 2°58.149 11.8 325 10.2 102070 69
2006-12-12 08:58:45 51°21.694 2°58.149 12.1 327 10.2 102080 69
2006-12-12 08:58:50 51°21.695 2°58.148 10.9 324 10.2 102080 69
2006-12-12 08:58:55 51°21.696 2°58.148 11.6 325 10.2 102080 68
2006-12-12 08:59:00 51°21.696 2°58.148 10.9 325 10.2 102080 68
2006-12-12 08:59:04 51°21.697 2°58.149 10 327 10.2 102080 68
2006-12-12 08:59:10 51°21.697 2°58.149 10.8 326 10.2 102080 68
2006-12-12 08:59:15 51°21.699 2°58.149 10.3 326 10.3 102080 68
2006-12-12 08:59:20 51°21.699 2°58.149 10.5 328 10.3 102080 68
2006-12-12 08:59:24 51°21.699 2°58.15 10 328 10.3 102080 68
2006-12-12 08:59:30 51°21.7 2°58.15 10.3 329 10.3 102080 68
2006-12-12 08:59:35 51°21.701 2°58.151 11.4 328 10.3 102100 69
2006-12-12 08:59:40 51°21.702 2°58.152 11.8 304 10.3 102100 69
2006-12-12 08:59:44 51°21.702 2°58.152 12.1 327 10.3 102090 69
2006-12-12 08:59:50 51°21.703 2°58.153 12.5 329 10.3 102090 69
2006-12-12 08:59:54 51°21.703 2°58.154 13.2 327 10.3 102100 69
2006-12-12 09:00:00 51°21.704 2°58.155 12.7 329 10.3 102100 69
2006-12-12 09:00:05 51°21.705 2°58.156 12.2 328 10.3 102080 69
2006-12-12 09:00:09 51°21.705 2°58.158 10.7 332 10.3 102080 69
2006-12-12 09:00:15 51°21.705 2°58.159 10.9 330 10.3 102080 69
2006-12-12 09:00:20 51°21.706 2°58.161 12.1 331 10.3 102080 69
2006-12-12 09:00:25 51°21.707 2°58.162 11.5 330 10.3 102070 68
2006-12-12 09:00:30 51°21.707 2°58.164 11.6 329 10.3 102070 68
2006-12-12 09:00:34 51°21.707 2°58.165 10.8 333 10.3 102080 68
2006-12-12 09:00:40 51°21.708 2°58.167 11.6 330 10.3 102080 68
2006-12-12 09:00:44 51°21.709 2°58.169 11.6 328 10.3 102090 68
2006-12-12 09:00:50 51°21.709 2°58.171 10.4 329 10.3 102090 68
2006-12-12 09:00:55 51°21.71 2°58.172 8.9 326 10.3 102070 67
2006-12-12 09:01:00 51°21.711 2°58.174 11 329 10.3 102070 67
2006-12-12 09:01:04 51°21.711 2°58.175 9.8 331 10.3 102080 68
2006-12-12 09:01:10 51°21.711 2°58.177 12.3 332 10.3 102080 68
2006-12-12 09:01:15 51°21.712 2°58.179 12.4 334 10.3 102090 68
2006-12-12 09:01:20 51°21.713 2°58.181 10.7 329 10.3 102090 68
2006-12-12 09:01:24 51°21.712 2°58.182 9.2 335 10.3 102090 68
2006-12-12 09:01:29 51°21.713 2°58.183 10.7 336 10.3 102090 68
2006-12-12 09:01:35 51°21.713 2°58.186 9 334 10.3 102100 69
2006-12-12 09:01:40 51°21.714 2°58.188 11 337 10.3 102100 69
2006-12-12 09:01:45 51°21.714 2°58.189 10.5 336 10.3 102090 68
2006-12-12 09:01:49 51°21.715 2°58.19 11.9 337 10.3 102090 68
2006-12-12 09:01:54 51°21.715 2°58.192 10.9 335 10.3 102090 68
2006-12-12 09:02:00 51°21.715 2°58.193 12.7 339 10.3 102090 68
2006-12-12 09:02:05 51°21.716 2°58.194 11.6 337 10.3 102090 69
2006-12-12 09:02:09 51°21.716 2°58.196 11.1 337 10.3 102090 69
2006-12-12 09:02:14 51°21.716 2°58.196 10 337 10.3 102090 69
2006-12-12 09:02:20 51°21.716 2°58.198 11.5 335 10.3 102090 69
2006-12-12 09:02:25 51°21.716 2°58.2 10.8 339 10.3 102080 69
2006-12-12 09:02:30 51°21.716 2°58.2 12.8 341 10.3 102080 69
2006-12-12 09:02:34 51°21.716 2°58.201 13.2 341 10.3 102080 69
2006-12-12 09:02:40 51°21.716 2°58.202 12.7 342 10.3 102080 69
2006-12-12 09:02:45 51°21.716 2°58.203 13.4 344 10.3 102080 68
2006-12-12 09:02:50 51°21.715 2°58.205 13.4 286 10.3 102080 68
2006-12-12 09:02:55 51°21.715 2°58.206 13.1 347 10.3 102090 68
2006-12-12 09:03:00 51°21.715 2°58.207 13.3 346 10.3 102090 68
2006-12-12 09:03:04 51°21.715 2°58.209 14.5 344 10.3 102070 67
2006-12-12 09:03:10 51°21.715 2°58.21 13 348 10.3 102070 67
2006-12-12 09:03:15 51°21.714 2°58.212 12.8 349 10.3 102070 67
2006-12-12 09:03:20 51°21.714 2°58.213 12.7 351 10.3 102070 67
2006-12-12 09:03:25 51°21.714 2°58.215 12.6 349 10.3 102070 67
2006-12-12 09:03:30 51°21.714 2°58.215 11.6 353 10.3 102070 67
2006-12-12 09:03:35 51°21.714 2°58.217 12.6 352 10.3 102070 67
2006-12-12 09:03:40 51°21.713 2°58.218 12.3 355 10.3 102070 67
2006-12-12 09:03:44 51°21.713 2°58.219 13.5 354 10.3 102080 67
2006-12-12 09:03:50 51°21.712 2°58.22 15.4 357 10.3 102080 67
2006-12-12 09:03:55 51°21.711 2°58.221 14 356 10.3 102070 67
2006-12-12 09:04:00 51°21.711 2°58.221 12.7 359 10.3 102070 67
2006-12-12 09:04:05 51°21.709 2°58.223 14 360 10.3 102070 67
2006-12-12 09:04:10 51°21.709 2°58.223 14.9 359 10.3 102070 67
2006-12-12 09:04:14 51°21.708 2°58.224 14.5 358 10.3 102070 67
2006-12-12 09:04:20 51°21.707 2°58.225 12.4 355 10.3 102070 67
2006-12-12 09:04:25 51°21.705 2°58.225 12.8 359 10.3 102060 67
2006-12-12 09:04:30 51°21.704 2°58.226 12.1 358 10.3 102060 67
2006-12-12 09:04:34 51°21.703 2°58.226 12.6 358 10.3 102060 67
2006-12-12 09:04:40 51°21.702 2°58.227 13.4 356 10.3 102060 67
2006-12-12 09:04:45 51°21.701 2°58.227 11.9 359 10.3 102070 67
2006-12-12 09:04:50 51°21.7 2°58.227 13.3 -999 10.3 102070 67
2006-12-12 09:04:54 51°21.699 2°58.227 11.9 357 10.3 102070 68
2006-12-12 09:05:00 51°21.697 2°58.228 15 353 10.3 102070 68
2006-12-12 09:05:05 51°21.696 2°58.227 14.4 352 10.3 102080 68
2006-12-12 09:05:10 51°21.694 2°58.226 13.6 350 10.3 102080 68
2006-12-12 09:05:15 51°21.692 2°58.225 13.2 347 10.3 102070 68
2006-12-12 09:05:20 51°21.69 2°58.223 12.5 349 10.3 102070 68
2006-12-12 09:05:24 51°21.689 2°58.223 14.5 346 10.3 102070 68
2006-12-12 09:05:30 51°21.687 2°58.221 14.9 347 10.3 102070 68
2006-12-12 09:05:35 51°21.686 2°58.221 13.5 347 10.3 102050 67
2006-12-12 09:05:40 51°21.685 2°58.219 12.4 346 10.3 102050 67
2006-12-12 09:05:45 51°21.684 2°58.218 13.8 346 10.3 102070 68
2006-12-12 09:05:49 51°21.683 2°58.217 15.2 345 10.3 102070 68
2006-12-12 09:05:54 51°21.682 2°58.216 14.9 343 10.3 102070 67
2006-12-12 09:06:00 51°21.681 2°58.214 14.1 344 10.3 102070 67
2006-12-12 09:06:05 51°21.68 2°58.212 13.4 341 10.3 102070 67
2006-12-12 09:06:10 51°21.679 2°58.211 11.8 337 10.3 102070 67
2006-12-12 09:06:15 51°21.678 2°58.21 11.3 339 10.3 102060 67
2006-12-12 09:06:20 51°21.678 2°58.209 11.7 338 10.3 102060 67
2006-12-12 09:06:25 51°21.677 2°58.208 11.1 338 10.3 102070 67
2006-12-12 09:06:30 51°21.677 2°58.207 12 336 10.3 102070 67
2006-12-12 09:06:34 51°21.677 2°58.206 11.3 333 10.3 102080 68
2006-12-12 09:06:40 51°21.677 2°58.205 11.7 337 10.3 102080 68
2006-12-12 09:06:45 51°21.676 2°58.205 10.4 333 10.4 102090 68
2006-12-12 09:06:50 51°21.676 2°58.205 11.7 338 10.4 102090 68
2006-12-12 09:06:54 51°21.676 2°58.205 10.6 338 10.4 102100 69
2006-12-12 09:07:00 51°21.676 2°58.205 12.1 335 10.4 102100 69
2006-12-12 09:07:05 51°21.676 2°58.205 13.5 338 10.4 102090 69
2006-12-12 09:07:10 51°21.676 2°58.205 13.3 336 10.4 102090 69
2006-12-12 09:07:14 51°21.676 2°58.205 13.2 337 10.3 102080 69
2006-12-12 09:07:20 51°21.676 2°58.205 12.5 340 10.3 102080 69
2006-12-12 09:07:25 51°21.676 2°58.206 12.9 335 10.3 102090 69
2006-12-12 09:07:30 51°21.676 2°58.206 11.1 340 10.3 102090 69
2006-12-12 09:07:34 51°21.676 2°58.206 11.6 341 10.3 102080 69
2006-12-12 09:07:40 51°21.676 2°58.206 11.6 337 10.3 102080 69
2006-12-12 09:07:45 51°21.675 2°58.206 12.3 333 10.3 102080 68
2006-12-12 09:07:50 51°21.675 2°58.206 13.1 336 10.3 102080 68
2006-12-12 09:07:55 51°21.675 2°58.206 12 336 10.3 102080 68
2006-12-12 09:08:00 51°21.676 2°58.207 10.8 334 10.3 102080 68
2006-12-12 09:08:05 51°21.675 2°58.207 12.6 336 10.3 102080 69
2006-12-12 09:08:10 51°21.675 2°58.208 10.4 335 10.3 102080 69
2006-12-12 09:08:15 51°21.675 2°58.21 10.4 336 10.3 102090 68
2006-12-12 09:08:20 51°21.675 2°58.211 11.1 337 10.3 102090 68
2006-12-12 09:08:24 51°21.675 2°58.211 10.4 337 10.3 102090 68
2006-12-12 09:08:30 51°21.675 2°58.213 10.5 337 10.3 102090 68
2006-12-12 09:08:35 51°21.675 2°58.214 10.1 339 10.3 102100 69
2006-12-12 09:08:40 51°21.675 2°58.215 9.8 339 10.3 102100 69
2006-12-12 09:08:44 51°21.675 2°58.216 11.1 340 10.3 102110 69
2006-12-12 09:08:50 51°21.675 2°58.217 12 280 10.3 102110 69
2006-12-12 09:08:54 51°21.675 2°58.218 10.9 343 10.4 102090 69
2006-12-12 09:09:00 51°21.675 2°58.22 11.8 343 10.4 102090 69
2006-12-12 09:09:05 51°21.675 2°58.221 12.9 345 10.4 102100 70
2006-12-12 09:09:09 51°21.675 2°58.221 12.4 346 10.4 102100 70
2006-12-12 09:09:15 51°21.675 2°58.222 12.5 342 10.4 102090 70
2006-12-12 09:09:20 51°21.675 2°58.223 11.9 350 10.4 102090 70
2006-12-12 09:09:25 51°21.675 2°58.224 12.4 348 10.3 102090 70
2006-12-12 09:09:30 51°21.675 2°58.225 11.6 352 10.3 102090 70
2006-12-12 09:09:34 51°21.674 2°58.226 11.7 350 10.3 102080 69